Regional Weather Roundup
Issued by NWS

Home | Current Version | Previous Version | Graphics & Text | Print | Product List | Glossary On
Versions: 1 2 3 4 5 6 7 8 9 10 11 12 13 14 15 16 17 18 19 20 21 22 23 24 25 26 27 28 29 30 31 32 33 34 35 36 37 38 39 40 41 42 43 44 45 46 47 48 49 50
000
ASUS43 KFSD 272310
RWRSD

WEATHER ROUNDUP FOR SOUTH DAKOTA
NATIONAL WEATHER SERVICE SIOUX FALLS SD
600 PM CDT FRI MAR 27 2015

NOTE: "FAIR" INDICATES FEW OR NO CLOUDS BELOW 12,000 FEET WITH NO
SIGNIFICANT WEATHER AND/OR OBSTRUCTIONS TO VISIBILITY.


SDZ001>005-009-010-012>017-280000-
NORTHWEST AND NORTH CENTRAL SOUTH DAKOTA

CITY           SKY/WX    TMP DP  RH WIND       PRES   REMARKS
BUFFALO          N/A     67  35  30 NW25      29.83F
FAITH            N/A     67  32  27 N20       29.87S
MOBRIDGE       MOSUNNY   48  34  58 SE17      29.87F
$$

SDZ012>016-024>037-041>051-057-063-072>074-280000-
SOUTHWEST AND SOUTH CENTRAL SOUTH DAKOTA

CITY           SKY/WX    TMP DP  RH WIND       PRES   REMARKS
RAPID CTY ARPT PTSUNNY   67  36  31 N24G30    29.92S
PIERRE         MOSUNNY   50  34  54 SE14      29.88F
CUSTER         PTSUNNY   58  30  34 NW13G21   30.01S
ELLSWORTH AFB  PTSUNNY   67  37  32 NW23      29.91F
PHILIP         PTSUNNY   70  33  25 NE9       29.86F
PINE RIDGE     PTSUNNY   69  35  28 N13       29.93S
SPEARFISH      FAIR      64  32  29 NW16G26   29.97S
WINNER         FAIR      55  33  43 SE17      29.90F
$$

SDZ004>011-016>023-039-040-280000-
NORTHEAST SOUTH DAKOTA

CITY           SKY/WX    TMP DP  RH WIND       PRES   REMARKS
ABERDEEN       CLOUDY    31  27  85 S17       30.01F WCI  19
WATERTOWN      LGT SNOW  31  25  78 S9        30.03F WCI  23
SISSETON         N/A     31  27  85 SW6       30.07S WCI  25
$$

SDZ017-020-022-023-036>040-048>070-280000-
SOUTHEAST SOUTH DAKOTA

CITY           SKY/WX    TMP DP  RH WIND       PRES   REMARKS
SIOUX FALLS    FLURRIES  34  20  56 SW9       30.08F WCI  27
HURON          CLOUDY    32  28  85 SE14G22   30.02F WCI  22
CHAMBERLAIN    SUNNY     40  31  69 SE13      29.96S
MITCHELL       CLOUDY    35  27  72 S14       30.05F WCI  26
YANKTON        CLOUDY    34  27  75 SE9       30.09S WCI  26
$$

ABBREVIATIONS USED IN REMARKS
   TC - TEMPERATURE IN CELSIUS
  WCI - WIND CHILL INDEX
   HX - HEAT INDEX
  VSB - VISIBILITY




USA.gov is the U.S. government's official web portal to all federal, state and local government web resources and services.